This is the latest recevied weather packets stored in our database for station/object N5COP-13. If no packets are shown the sender has not sent any weather packets the latest 10 day(s).
| Time | Temp. | Humidity | Pressure | Rain* | Wind** | Luminosity | Snow |
|---|---|---|---|---|---|---|---|
| 1778092181 | 15.56° C | 46% | 1016.2 hPa | 0 mm | - | 886 W/m² | - |
| 1778091879 | 15.56° C | 45% | 1016.5 hPa | 0 mm | - | 227 W/m² | - |
| 1778091576 | 16.11° C | 46% | 1016.3 hPa | 0 mm | - | 886 W/m² | - |
| 1778091273 | 15.56° C | 47% | 1016.5 hPa | 0 mm | - | 923 W/m² | - |
| 1778090970 | 15° C | 48% | 1016.9 hPa | 0 mm | - | 971 W/m² | - |
| 1778090666 | 13.89° C | 48% | 1016.8 hPa | 0 mm | - | 955 W/m² | - |
| 1778090358 | 15° C | 47% | 1016.8 hPa | 0 mm | - | 346 W/m² | - |
| 1778090055 | 14.44° C | 49% | 1016.8 hPa | 0 mm | - | 954 W/m² | - |
| 1778089751 | 13.89° C | 49% | 1016.8 hPa | 0 mm | - | 870 W/m² | - |
| 1778089449 | 15° C | 49% | 1017.2 hPa | 0 mm | - | 269 W/m² | - |
| 1778089146 | 13.89° C | 49% | 1017 hPa | 0 mm | - | 843 W/m² | - |
| 1778088843 | 14.44° C | 50% | 1016.8 hPa | 0 mm | - | 872 W/m² | - |
| 1778088540 | 13.89° C | 50% | 1017.2 hPa | 0 mm | - | 869 W/m² | - |
| 1778088236 | 13.89° C | 50% | 1017 hPa | 0 mm | - | 872 W/m² | - |
| 1778087934 | 14.44° C | 50% | 1017.1 hPa | 0 mm | - | 888 W/m² | - |
| 1778087630 | 13.89° C | 52% | 1017.1 hPa | 0 mm | - | 934 W/m² | - |
| 1778087328 | 12.78° C | 51% | 1017.1 hPa | 0 mm | - | 291 W/m² | - |
| 1778087024 | 13.33° C | 51% | 1017 hPa | 0 mm | - | 850 W/m² | - |
| 1778086718 | 13.89° C | 52% | 1017 hPa | 0 mm | - | 817 W/m² | - |
| 1778086415 | 13.33° C | 53% | 1017.1 hPa | 0 mm | - | 817 W/m² | - |
| 1778086111 | 12.78° C | 54% | 1017.1 hPa | 0 mm | - | 806 W/m² | - |
| 1778085808 | 12.78° C | 54% | 1017.1 hPa | 0 mm | - | 784 W/m² | - |
| 1778085506 | 12.78° C | 55% | 1017.2 hPa | 0 mm | - | 776 W/m² | - |
| 1778085200 | 11.67° C | 55% | 1017.1 hPa | 0 mm | - | 763 W/m² | - |
| 1778084896 | 12.22° C | 55% | 1016.8 hPa | 0 mm | - | 752 W/m² | - |
* Rain latest hour (hover to see other rain measurements)
** Current wind speed in m/s (hover to see current wind gust speed)